User: anonymous   Login
Location: Unspecified
(0.0000°N, 0.0000°E)
Time: 17:18:40
(UTC+00:00)
Language:

NOAA 15 - Orbit

View from above orbital plane
View from above orbital plane
View from above satellite
View from above satellite

Ground track
Ground track

The orbit data is extracted from the following two-line orbital elements,

1 25338U 98030A   18051.91411757 -.00000005 +00000-0 +16768-4 0  9999
2 25338 098.7762 068.2295 0010205 199.5816 160.4973 14.25839330028199
Epoch (UTC): 20 February 2018 21:56:19
Eccentricity: 0.0010205
inclination: 98.7762°
perigee height: 798 km
apogee height: 813 km
right ascension of ascending node: 68.2295°
argument of perigee: 199.5816°
revolutions per day: 14.25839330
mean anomaly at epoch: 160.4973°
orbit number at epoch: 2819

The dashed part of the orbit path shows where the satellite is in the earth's shadow,  

DLR